Regional Weather Roundup
Issued by NWS

Home | Current Version | Previous Version | Text Only | Print | Product List | Glossary Off
Versions: 1 2 3 4 5 6 7 8 9 10 11 12 13 14 15 16 17 18 19 20 21 22 23 24 25 26 27 28 29 30 31 32 33 34 35 36 37 38 39 40 41 42 43 44 45 46 47 48 49 50

000
ASUS43 KLOT 190803
RWRIL

ILLINOIS REGIONAL WEATHER ROUNDUP
NATIONAL WEATHER SERVICE CHICAGO/ROMEOVILLE IL
300 AM CDT THU APR 19 2018

NOTE: "FAIR" INDICATES FEW OR NO CLOUDS BELOW 12,000 FEET WITH NO
SIGNIFICANT WEATHER AND/OR OBSTRUCTIONS TO VISIBILITY.

* THESE STATIONS ARE NOT UNDER NWS QUALITY CONTROL. THEY ALSO MAY NOT
  REPORT WEATHER SUCH AS PRECIPITATION OR FOG.

ILZ001-002-007-009-015-016-024-190900-
NORTHWEST ILLINOIS

CITY           SKY/WX    TMP DP  RH WIND       PRES   REMARKS
MOLINE         CLOUDY    34  31  88 NW10      30.15R WCI  26
STERLING*      CLOUDY    33  31  92 N12       30.12R WCI  24
SAVANNA*       CLOUDY    33  31  92 NW9       30.14R WCI  25
$$

ILZ003-004-008-010-011-017-018-190900-
NORTH CENTRAL ILLINOIS

CITY           SKY/WX    TMP DP  RH WIND       PRES   REMARKS
ROCKFORD       CLOUDY    33  29  85 N10       30.11R WCI  25
FREEPORT*      CLOUDY    32  29  90 NW8       30.13R WCI  25
ROCHELLE*      CLOUDY    32  31  96 N10       30.09R WCI  24
DE KALB*       CLOUDY    32  32  98 N10       30.07R WCI  24
PERU*          CLOUDY    35  33  92 NW14      30.09R WCI  26
$$

ILZ005-006-012>014-019>023-190900-
NORTHEAST ILLINOIS

CITY           SKY/WX    TMP DP  RH WIND       PRES   REMARKS
CHICAGO-OHARE  FLURRIES  33  33 100 NE13      30.04R WCI  24
CHICAGO-MIDWAY LGT SNOW  35  34  96 N12       30.03R FOG     WCI  27
AURORA         CLOUDY    34  32  92 N13       30.05R WCI  25
LANSING*       LGT RAIN  34  34 100 N10       30.02R WCI  26
JOLIET*        CLOUDY    35  34  96 N8        30.05R WCI  28
WAUKEGAN       CLOUDY    35  33  92 N9        30.05R WCI  28
DUPAGE AIRPORT CLOUDY    33  33 100 N12       30.04R FOG     WCI  24
KANKAKEE*      LGT RAIN  33  32  96 NW12      30.03R WCI  24
WHEELING       CLOUDY    35  33  92 N8        30.06R FOG     WCI  29
MORRIS*        CLOUDY    33  32  96 N7        30.04R WCI  27
ROMEOVILLE*    DRIZZLE   33  32  96 N10       30.04R WCI  25
NORTHERLY ISL    N/A     35  33  92 MISG        N/A
$$

LMZ740>746-190900-
SOUTHERN LAKE MICHIGAN

STATION/POSITION SKY/WX   TEMP    WIND        PRES    VSBY  WAVE
                          AIR SEA DIR/SP/G                  HT/PER
                          (F)     (DEG/KT/KT) (MB)    (MI)  (FT/S)
HARRISON CRIB              36      10/ 19/ 21   N/A
BURNHAM HARBOR             35      10/ 14/ 16   N/A
CALUMET HARBOR             35     350/ 16/ 20 1015.9R
BURNS HARBOR               36      20/ 26/ 30 1015.9R
MICHIGAN CITY              35      10/ 26/ 28   N/A
$$

ILZ025>027-034>036-040-047-049-050-058-095>099-190900-
WEST-CENTRAL ILLINOIS

CITY           SKY/WX    TMP DP  RH WIND       PRES   REMARKS
QUINCY         CLOUDY    34  26  72 NW16      30.17R WCI  24
MACOMB*        CLOUDY    33  29  86 NW12      30.17R WCI  24
JACKSONVILLE*  CLOUDY    33  28  79 NW10      30.14R WCI  25
PITTSFIELD*    CLOUDY    34  26  72 NW10      30.18R WCI  26
$$

ILZ028>032-037-038-041>044-048-051>054-059>061-190900-
CENTRAL ILLINOIS

CITY           SKY/WX    TMP DP  RH WIND       PRES   REMARKS
BLOOMINGTON    CLOUDY    32  29  88 NW16      30.07R WCI  21
DECATUR        CLOUDY    34  29  82 NW13      30.08R WCI  25
PEORIA         CLOUDY    34  29  82 NW8G18    30.11S WCI  27
LACON*         CLOUDY    33  31  92 N7        30.10R WCI  27
LINCOLN*       CLOUDY    35  32  88 NW6       30.11R WCI  30
SPRINGFIELD    CLOUDY    36  29  75 NW13      30.12R WCI  27
TAYLORVILLE    CLOUDY    34  28  76 NW13G22   30.11R WCI  25
$$

ILZ033-039-045-046-055>057-062-063-190900-
EAST-CENTRAL ILLINOIS

CITY           SKY/WX    TMP DP  RH WIND       PRES   REMARKS
CHAMPAIGN      CLOUDY    33  30  88 NW17      30.05R WCI  22
DANVILLE*      CLOUDY    33  30  89 NW17      29.99R WCI  22
RANTOUL*       CLOUDY    35  32  89 NW15G22   30.04R WCI  25
MATTOON        CLOUDY    34  29  82 NW20      30.06R WCI  23
$$

ILZ079-100>102-190900-
SOUTHWEST ILLINOIS

CITY           SKY/WX    TMP DP  RH WIND       PRES   REMARKS
BELLEVILLE       N/A     38  23  53 NW14      30.13R WCI  30
CAHOKIA*       CLOUDY    39  24  55 NW16      30.15R WCI  30
SPARTA*        CLOUDY    38  26  60 NW15G23   30.14S WCI  30
$$

ILZ064>066-069>071-074>076-080>082-084>086-088>090-092>094-190900-
SOUTH-CENTRAL ILLINOIS

CITY           SKY/WX    TMP DP  RH WIND       PRES   REMARKS
CARBONDALE     CLOUDY    40  23  50 NW15G25   30.13R
CAIRO*         CLOUDY    44  29  55 NW17G24   30.13R
EFFINGHAM*     CLOUDY    36  30  77 W15       30.11R WCI  27
MARION         CLOUDY    40  24  53 NW9       30.13R
MT. VERNON     CLOUDY    39  25  57 VRB5      30.12R
CENTRALIA*     CLOUDY    38  26  62 NW20G28   30.12R WCI  28
SALEM*         CLOUDY    39  27  63 NW13      30.11R WCI  31
METROPOLIS*    CLOUDY    43  27  54 NW13G18   30.12R
$$

ILZ067-068-072-073-078-083-087-091-190900-
SOUTHEAST ILLINOIS

CITY           SKY/WX    TMP DP  RH WIND       PRES   REMARKS
LAWRENCEVILLE  MOCLDY    38  27  64 NW17G24   30.07R WCI  28
FLORA*         CLOUDY    39  29  67 NW15G24   30.10R WCI  31
FAIRFIELD*     CLOUDY    38  27  63 NW7       30.10R WCI  33
HARRISBURG*    CLOUDY    40  28  61 NW15G22   30.13R
ROBINSON*      CLOUDY    35  29  79 NW12G23   30.07R WCI  27
CARMI*         CLOUDY    39  27  61 NW16G26   30.09R WCI  31
$$

ABBREVIATIONS USED IN REMARKS
   TC - TEMPERATURE IN CELSIUS
  WCI - WIND CHILL INDEX
   HX - HEAT INDEX
  VSB - VISIBILITY
$$





USA.gov is the U.S. government's official web portal to all federal, state and local government web resources and services.